Weather History for PALG - April, 2014

Change the Weather History Date:

Monday, April 28, 2014

  Actual Average (PANI) Record (PANI)
Temperature  
Mean Temperature 42 °F -  
Max Temperature 56 °F 41 °F 60 °F (2014)
Min Temperature 29 °F 27 °F 10 °F (2008)
Degree Days  
Heating Degree Days 22    
Moisture  
Dew Point 29 °F    
Average Humidity 55    
Maximum Humidity 85    
Minimum Humidity 32    
Precipitation  
Precipitation 0.00 in - - ()
Sea Level Pressure  
Sea Level Pressure 29.75 in    
Wind  
Wind Speed 2 mph (SW)    
Max Wind Speed 14 mph    
Max Gust Speed -    
Visibility 9 miles    
Events      
Averages and records for this station are not official NWS values.
T = Trace of Precipitation, MM = Missing Value Source: NWS Daily Summary

Daily Weather History Graph

Daily Weather History Graph

Search for Another Location

Airport or City:

Trip Planner

Search our weather history database for the weather conditions in past years. The results will help you decide how hot, cold, wet, or windy it might be!

Date:

Astronomy

Apr. 28, 2014 Rise Set
Actual Time 6:38 AM AKDT 10:40 PM AKDT
Civil Twilight 5:42 AM AKDT 11:37 PM AKDT
Nautical Twilight 4:12 AM AKDT 1:10 AM AKDT
Astronomical Twilight Sun does not set Sun does not set
Moon 6:41 AM AKDT (4/28) 10:24 PM AKDT (4/28)
Length of Visible Light 17h 54m
Length of Day
16h 01m
Waning Crescent, 0% of the Moon is Illuminated
Apr 28
Waning Crescent
Apr 28
New
May 6
First Quarter
May 14
Full
May 21
Last Quarter

Hourly Weather History & Observations

Time (AKDT) Temp. Dew Point Humidity Pressure Visibility Wind Dir Wind Speed Gust Speed Precip Events Conditions
12:56 AM 48.9 °F 23.0 °F 36% 29.55 in 10.0 mi Variable 4.6 mph - N/A   Clear
1:56 AM 43.0 °F 26.1 °F 51% 29.57 in 10.0 mi Calm Calm - N/A   Clear
2:56 AM 43.0 °F 25.2 °F 49% 29.59 in 10.0 mi Calm Calm - N/A   Clear
3:56 AM 36.9 °F 25.2 °F 63% 29.61 in 10.0 mi Calm Calm - N/A   Clear
4:56 AM 32.0 °F 23.0 °F 69% 29.63 in 10.0 mi Calm Calm - N/A   Clear
5:56 AM 30.0 °F 24.1 °F 79% 29.65 in 10.0 mi Calm Calm - N/A   Clear
6:56 AM 29.1 °F 25.2 °F 85% 29.68 in 10.0 mi Calm Calm - N/A   Clear
7:56 AM 31.1 °F 25.2 °F 79% 29.71 in 10.0 mi Calm Calm - N/A   Clear
8:56 AM 36.0 °F 26.1 °F 67% 29.72 in 10.0 mi Calm Calm - N/A   Clear
9:56 AM 39.9 °F 28.0 °F 63% 29.74 in 10.0 mi Calm Calm - N/A   Clear
10:56 AM 41.9 °F 30.0 °F 63% 29.76 in 10.0 mi Calm Calm - N/A   Clear
11:56 AM 45.0 °F 30.0 °F 56% 29.77 in 10.0 mi Calm Calm - N/A   Clear
12:56 PM 48.2 °F 32.0 °F 54% 29.76 in 10.0 mi South 5.8 mph - N/A   Clear
1:56 PM 52.9 °F 31.1 °F 43% 29.78 in 8.0 mi Variable 4.6 mph - N/A   Clear
2:56 PM 54.0 °F 34.0 °F 47% 29.79 in 8.0 mi SSW 5.8 mph - N/A   Clear
3:56 PM 56.8 °F 34.0 °F 42% 29.80 in 6.0 mi Calm Calm - N/A   Haze
4:56 PM 55.9 °F 34.0 °F 44% 29.81 in 7.0 mi SSW 4.6 mph - N/A   Clear
5:56 PM 56.8 °F 27.1 °F 32% 29.82 in 6.0 mi West 13.8 mph - N/A   Haze
6:56 PM 54.9 °F 32.0 °F 42% 29.83 in 7.0 mi WSW 9.2 mph - N/A   Clear
7:56 PM 52.0 °F 31.1 °F 45% 29.83 in 9.0 mi SSW 6.9 mph - N/A   Clear
8:56 PM 50.9 °F 29.1 °F 43% 29.85 in 10.0 mi WSW 10.4 mph - N/A   Clear
9:56 PM 46.9 °F 30.0 °F 52% 29.87 in 7.0 mi Calm Calm - N/A   Clear
10:56 PM 43.9 °F 32.0 °F 63% 29.89 in 4.0 mi Calm Calm - N/A   Haze
11:56 PM 43.0 °F 32.0 °F 65% 29.92 in 10.0 mi Calm Calm - N/A   Clear